Location: Avon
(37.7514°N, 90.2235°W)
Time: 19:04:56
(UTC+00:00)

A-11 Canister half - Pass Details

Date: 10 November 2025
Orbit: 1526 x 1681 km, 47.3° (Epoch: 06 December)

Event Time Altitude Azimuth Distance (km) Brightness Sun altitude
Exits shadow 10:15:40 15° 208° (SSW) 3,334 10.5 -27.9°
Drops below altitude 10° 10:17:45 10° 196° (SSW) 3,685 10.8 -27.5°
Sets 10:22:02 0° 179° (S) 4,675 11.6 -26.7°
